User: anonymous   Login
Location: Unspecified
(0.0000°N, 0.0000°E)
Time: 02:09:25
(UTC+00:00)
Language:

ONEWEB-0172 - Orbit

View from above orbital plane
View from above orbital plane
View from above satellite
View from above satellite

Ground track
Ground track

The orbit is defined by the following mean orbital elements,

1 48071U          26145.22085910 +.00000000 +00000-0 -80792-3 0 00008
2 48071  87.8947 324.7946 0001614  92.7264 267.4050 13.13469659    03
Epoch (UTC): 25 May 2026 05:18:02
Eccentricity: 0.0001614
inclination: 87.8947°
perigee height: 1209 km
apogee height: 1211 km
right ascension of ascending node: 324.7946°
argument of perigee: 92.7264°
revolutions per day: 13.13469659
mean anomaly at epoch: 267.4050°

The dashed part of the orbit path shows where the satellite is in the earth's shadow,  

DLR